{"data":{"norad_id":59722,"intl_designator":"2024-088Q","name":"STARLINK-31843","alt_names":[],"object_type":"PAYLOAD","status":"ACTIVE","operator":null,"country":"US","launch_date":"2024-05-10","launch_site_code":"AFWTR","launch_vehicle":null,"mission":null,"orbit_class":"UNKNOWN","rcs_meters":null,"size_class":null,"mass_kg":null,"dimensions":null,"purposes":["comms"],"wikipedia_slug":null,"has_3d_model":false,"image_url":null,"decayed_at":null,"tle_current":{"epoch":"2026-05-25T03:29:34.149696Z","epoch_age_seconds":73030,"freshness":"FRESH","line1":"1 59722U 24088Q   26145.14553414  .00006520  00000+0  23180-3 0  9991","line2":"2 59722  53.1590 145.0785 0001852  81.2875 278.8336 15.30240830115388","mean_motion":15.3024083,"eccentricity":0.0001852,"inclination_deg":53.159,"raan_deg":145.0785,"arg_perigee_deg":81.2875,"mean_anomaly_deg":278.8336,"bstar":0.0002318,"rev_number":11538,"period_min":94.102834780588,"perigee_km":473.82394288385,"apogee_km":476.36237933552,"semimajor_km":6853.2301611097,"source":"CELESTRAK","updated_at":"2026-05-25T13:38:19.048804Z"}}}